Other Public Products
Issued by NWS Grand Forks, ND

Home | Current Version | Previous Version | Graphics & Text | Print | Product List | Glossary On
Versions: 1 2 3 4 5 6 7 8 9 10 11 12 13 14 15 16 17 18 19 20 21 22 23 24 25 26 27 28 29 30 31 32 33 34 35 36 37 38 39 40 41 42 43 44 45 46 47 48 49 50
000
FPUS83 KFGF 240810
OPUFGF
PRAIRIE TO PINES WEATHER ROUNDUP
NATIONAL WEATHER SERVICE EASTERN NORTH DAKOTA/GRAND FORKS ND
200 AM CST MON NOV 24 2014

 **SATELLITE DATA USED TO AUGMENT SKY COVER AT AUTOMATED STATIONS**
 *****  WEATHER ACROSS EASTERN NORTH DAKOTA  *****

CITY           SKY/WX    TMP DP  RH WIND       PRES   REMARKS
GRAND FORKS    FLURRIES  14   9  80 N22G33    29.61R WCI  -4
GRAND FORKS AF CLOUDY    12   8  83 N18G28    29.62R WCI  -5
GRAND CITY NWS   N/A     14 N/A N/A N18         N/A  WCI  -3
BUXTON         NOT AVBL
DEVILS LAKE    CLOUDY    10   0  61 N20G25    29.65R WCI  -8
FARGO          LGT SNOW  16  12  84 NW20      29.58S FOG     WCI  -1
WAHPETON ARPT  CLOUDY    18  12  79 NW20G29   29.56S WCI   1
$$

 *****  WEATHER ACROSS CENTRAL AND WESTERN NORTH DAKOTA  *****

CITY           SKY/WX    TMP DP  RH WIND       PRES   REMARKS
JAMESTOWN      CLOUDY    14   7  73 NW23G30   29.62S WCI  -5
BISMARCK       CLOUDY    17  12  80 N14G23    29.75R WCI   3
MINOT          CLEAR      7   2  80 NW17      29.77R WCI -12
MINOT AFB      CLEAR      7   3  84 NW15      29.78R WCI -10
GARRISON         N/A      8   5  87 N13       29.75S WCI  -8
WILLISTON      PTCLDY     8   4  83 N7        29.82S WCI  -3
DICKINSON      CLEAR     14  10  84 NW13      29.74S WCI   0
HETTINGER      MOCLDY    16  13  88 NW18      29.74S WCI   0
$$

 *****  OTHER OBSERVATIONS NORTHEAST NORTH DAKOTA  *****

CITY           SKY/WX    TMP DP  RH WIND       PRES   REMARKS
WALHALLA         N/A      9   7  92 NW21G29   29.68R WCI -11
LANGDON        CLOUDY     7   1  78 NW17G25   29.63R WCI -12
CAVALIER       LGT SNOW  10   7  85 N26G35    29.66R WCI -11
GRAFTON        FLURRIES  10   7  85 N25G32    29.63S WCI -10
CANDO          CLOUDY     9   5  85 N16G28    29.70R WCI  -9
FORT TOTTEN    NOT AVBL
ROLLA          FAIR       5   1  85 N24G33    29.69R WCI -17
RUGBY          FAIR       7   3  85 NW15      29.72S WCI -11
 ***** THE ABOVE OBSERVATIONS ARE NON NWS ARE NOT QUALITY
        CONTROLLED AND MAY MIS-REPORT RAIN FOR SNOW...
$$

 *****  OTHER OBSERVATIONS SOUTHEAST NORTH DAKOTA *****

CITY           SKY/WX    TMP DP  RH WIND       PRES   REMARKS
COOPERSTOWN    NOT AVBL
VALLEY CITY    FLURRIES  12   9  85 N23G36    29.61R WCI  -7
OAKES          FLURRIES  16  10  79 NW21G30   29.61R WCI  -2
GWINNER        CLOUDY    19  12  73 NW21G26   29.60S WCI   3
BUFFALO        NOT AVBL
WYNDMERE         N/A     16  12  86 NW17        N/A  WCI   0
 ***** THE ABOVE OBSERVATIONS ARE NON NWS ARE NOT QUALITY
       CONTROLLED AND MAY MIS-REPORT RAIN FOR SNOW...
$$

  *****  WEATHER ACROSS NORTHERN MINNESOTA  *****

CITY           SKY/WX    TMP DP  RH WIND       PRES   REMARKS
FLAG ISLAND    CLOUDY    19  18  93 N21       29.48R WCI   3
WARROAD        CLOUDY    18  14  86 NW13G18   29.49R WCI   4
ROSEAU         CLOUDY    18  12  79 NW15G22   29.51R WCI   3
HALLOCK        FLURRIES  12   9  85 NW18G28   29.61S WCI  -5
THF RVR FALLS  CLOUDY    14  10  85 NW18      29.52S WCI  -3
HALSTAD          N/A     14  10  84 N23         N/A  WCI  -4
FOSSTON        LGT SNOW  12  10  92 NW14G21   29.49F WCI  -3
BAUDETTE       CLOUDY    25  23  92 NW22G28   29.41S FOG     WCI  10
WASKISH        MIX PCPN  23  21  93 NW5G17    29.42R WCI  17
CROOKSTON      LGT SNOW  14  10  85 N24       29.58S WCI  -5
$$
  *****  WEATHER ACROSS CENTRAL AND WEST MINNESOTA  *****

CITY           SKY/WX    TMP DP  RH WIND       PRES   REMARKS
BEMIDJI        LGT SNOW  18  17  94 NW17      29.42S WCI   3
PARK RAPIDS    CLOUDY    18  15  88 NW16      29.41F WCI   3
WADENA         CLOUDY    18  14  86 NW16G23   29.42F WCI   3
DETROIT LAKES  LGT SNOW  16  14  93 NW21G26   29.49S WCI  -2
MOORHEAD       LGT SNOW  16  16 100 NW16G22   29.57S WCI   0
FERGUS FALLS   CLOUDY    16  10  79 N24G30    29.54S WCI  -3
ELBOW LAKE       N/A     17  13  86 NW24G30   29.48S WCI  -2
MORRIS MN        N/A     18  16  93 NW23G29   29.48S WCI   0
STAPLES        CLOUDY    19  18  93 NW17      29.40F WCI   4
WHEATON        FLURRIES  16  10  79 NW24G30   29.57R WCI  -3
$$
  *****  WEATHER ELSEWHERE ACROSS MINNESOTA  *****

CITY           SKY/WX    TMP DP  RH WIND       PRES   REMARKS
DULUTH         LGT SNOW  34  30  86 NW15      29.23F FOG     WCI  24
INTRNTL FALLS  CLOUDY    33  31  92 NW9       29.34S FOG
ELY            LGT SNOW  32  32 100 NW6       29.26S
CLOQUET        LGT SNOW  34  32  93 NW10G17   29.25F
BRAINERD       CLOUDY    25  21  85 NW20G26   29.37R WCI  11
HIBBING        CLOUDY    34  30  85 NW14      29.28S WCI  25
ALEXANDRIA     CLOUDY    19  15  84 NW18G26   29.43S WCI   4
SAINT CLOUD    CLOUDY    29  23  78 NW22      29.34S WCI  15
MINNEAPOLIS    CLOUDY    31  28  89 NW14      29.31S WCI  21
$$

  *****  WEATHER ACROSS SOUTH DAKOTA  *****

CITY           SKY/WX    TMP DP  RH WIND       PRES   REMARKS
SIOUX FALLS    CLOUDY    20  12  71 NW29G39   29.53R WCI   1
BROOKINGS      NOT AVBL
WATERTOWN      FLURRIES  16  10  77 NW17      29.52S WCI   0
HURON          CLOUDY    20  12  71 NW20G29   29.62S WCI   4
SISSETON         N/A     17  12  80 N22G31    29.55S WCI   0
ABERDEEN       CLOUDY    19  10  68 NW23      29.64S WCI   2
MITCHELL       CLOUDY    23  14  68 NW28      29.62S WCI   6
PIERRE         CLOUDY    24  17  74 NW23G32   29.67F WCI   9
MOBRIDGE       CLOUDY    22  15  75 N24G35    29.66R WCI   5
RAPID CITY     CLEAR     30  20  66 N17       29.72S WCI  18
$$

  *****  SOME WEATHER IN NEARBY STATES *****

CITY           SKY/WX    TMP DP  RH WIND       PRES   REMARKS
GLASGOW MT     CLOUDY    19  15  84 E9        29.79F WCI   8
GREAT FALLS MT CLOUDY    36  23  59 W9        29.85R
CHEYENNE WY    CLEAR     24   8  50 NW18G24   29.81F WCI  10
SCOTTSBLUFF NE CLEAR     25  16  68 NW13      29.80S WCI  14
OMAHA NE       CLOUDY    33  21  61 NW20G28   29.53S WCI  21
DES MOINES IA  CLOUDY    33  26  75 NW24G32   29.38S WCI  20
DAVENPORT IA   CLOUDY    40  38  93 NW20G26   29.17R
CHICAGO IL     LGT RAIN  49  48  97 W9        29.07R FOG
EAU CLAIRE WI  CLOUDY    37  34  89 NW14      29.19R
LA CROSSE WI   CLOUDY    39  38  96 NW14      29.17S FOG
$$

  *****  SOME NATIONAL WEATHER *****

CITY           SKY/WX    TMP DP  RH WIND       PRES   REMARKS
LA GUARDIA NY  RAIN      57  56  96 SE16G22   29.84F FOG
RALEIGH NC     MOCLDY    65  60  84 S14G22    29.78R
ATLANTA GA     CLOUDY    61  57  87 SW8       29.77R
NEW ORLEANS LA CLOUDY    67  65  93 S10       29.75S FOG
OKLAHOMA CITY  PTCLDY    40  30  67 NW9       29.83R
ALBUQUERQUE NM CLEAR     33  12  41 N10       30.10R WCI  25
SALT LAKE CITY CLOUDY    35  23  61 SE9       30.19F
LOS ANGELES CA PTCLDY    65  12  12 N10       30.15S
BOISE ID       CLOUDY    38  30  73 NW6       30.26R
SEATTLE WA     MOCLDY    42  38  85 S6        30.36R
$$

*** WEATHER ACROSS MANITOBA...SASKATCHEWAN AND ONTARIO ***
                ***ONTARIO***

CITY           SKY/WX    TMP DP  RH WIND       PRES   REMARKS
GERALDTON      FRZ DRZL  18  18 100 NE8       29.31F FOG     WCI   7
THUNDER BAY    DRIZZLE   34  32  93 N7        29.22F FOG
SIOUX LOOKOUT  FLURRIES  18  16  93 N8        29.41S WCI   7
TORONTO        LGT RAIN  46  45  93 E15G23    29.31F
BIG TROUT LK   LGT SNOW   0  -4  85 N8        29.78R WCI -15
PICKLE LAKE    NOT AVBL
DRYDEN         FLURRIES  19  19 100 N14G21    29.40  WCI   6
KENORA         FLURRIES  16  14  93 N14G21    29.46S WCI   1
$$
                *** MANITOBA***

CITY           SKY/WX    TMP DP  RH WIND       PRES   REMARKS
BRANDON        PTCLDY     3  -2  78 NW10      29.78S WCI -12
DAUPHIN        PTCLDY     0  -6  78 W5        29.90R WCI -10
ISLAND LAKE    CLEAR    -11 -18  70 N7        29.87R WCI -26
PILOT MOUND    NOT AVBL
THE PAS        CLEAR     -9 -13  84 SE2       29.94S
THOMPSON       CLEAR    -24 -31  69 CALM      29.94F
WINNIPEG       FLURRIES   9   1  72 N25       29.70R WCI -13
LYNN LAKE      CLOUDY    -2  -6  84 S6        29.81F WCI -14
CHURCHILL      PTCLDY   -13 -18  77 SW5       29.94S WCI -25
GILLAM         CLEAR    -20 -26  76 NW6       29.96S WCI -36
$$
                ***SASKATCHEWAN***

CITY           SKY/WX    TMP DP  RH WIND       PRES   REMARKS
ESTEVAN        MOCLDY     5   1  85 NW7       29.82R WCI  -7
KINDERSLEY     MOCLDY    10   7  85 N3        29.82R
LLOYDMINSTER   CLOUDY    14  12  92 SW8       29.76R WCI   3
PRINCE ALBERT  FLURRIES   3   0  85 NE3       29.86F
REGINA         PTCLDY     7   5  92 NW6       29.84R WCI  -3
YORKTON        CLEAR     -2  -6  84 NW5       29.85S WCI -12


USA.gov is the U.S. government's official web portal to all federal, state and local government web resources and services.